Погода в Балашове

Хотите узнать прогноз погоды в Балашове? Тогда Вам сюда: Погода в Балашове

Поиск расширенной информации на нашем сайте:

Полезная информация:

Новости сайта



02.01.2020
Опубликован Долгосрочный прогноз погоды по городам России и ближнего зарубежья на январь 2020 года.
Карты: Прогноз на январь и февраль 2020 года, Сравнение прогнозируемой аномалии приземной температуры воздуха на январь 2020 года по разным моделям.




Погода в Балашове - сегодня

Время (UTC), дата Ветер
(°,м/с) 
Видим.   Явления Облачность Т
(°С)
Тd
(°С)
f(%) Тe
(°С)
Pmin
(гПа)
dP
(гПа)
Po
(мм)
O2
(г/м3)
Тmin Tmax R s Состояние
почвы
12 09.08.20 330 (СЗ) 20000 м    8/4 1000 м средняя 
[Cu med, cong|Ac As]
+25.6 +10.9 40 +28  1010.9  -0.9  745  272           
15 09.08.20 330 (СЗ) 20000 м    6/3 1000 м средняя 
[Sc diur, vesp|Ac trans]
+25.5 +11.2 41 +28  1010.3  -0.6  744  272    +27.3       
18 09.08.20 020 (С) 20000 м    ясно 
+18.4 +12.1 67 +23  1011.8  1.1  745  279           
21 09.08.20 360 (С) 20000 м    ясно 
+14.1 +12.4 89 +20  1012.5  0.4  745  283           
00 10.08.20 020 (С) 20000 м    ясно 
+12.2 +11.9 98 +17  1013.1  0.5  746  285           
03 10.08.20 360 (С) 20000 м    ясно 
+12.8 +12 95 +18  1013.4  0.3  746  285  +10.8        сухая 
06 10.08.20 330 (СЗ) 20000 м    ясно 
+22.3 +12.4 53 +27  1013.1  0.3  746  276           
09 10.08.20 320 (СЗ) 20000 м    8/8 1000 м 
[Cu med, cong]
+23.8 +9.9 41 +25  1012.2  -0.8  746  275           
12 10.08.20 350 (С) 4-11{11}  20000 м    8/8 1000 м 
[Cu med, cong]
+25.7 +9.8 37 +27  1011.3  -0.8  745  273           
15 10.08.20 360 (С) 4{11}  20000 м    1/1 1000 м 
[Cu hum]
+25.3 +9.4 37 +26  1011  -0.3  745  273    +27.2       
18 10.08.20 020 (С) 20000 м    ясно 
+16 +10.4 69 +19  1012.5  0.9  745  282           
21 10.08.20 020 (С) 20000 м    ясно 
+12.6 +10.4 86 +16  1013.4  0.7  746  285           
00 11.08.20 360 (С) 20000 м    ясно 
+10.4 +9.8 96 +13  1013.7  0.1  746  288           
03 11.08.20 тихо ()   20000 м    ясно 
+12.6 +10 84 +14  1013.9  0.4  746  286  +8.5        сухая 
06 11.08.20 030 (СВ) 20000 м    ясно 
+21.4 +10.4 49 +23  1013.2  -0.2  746  277           
09 11.08.20 020 (С) 20000 м    1/0 верхняя 
[Ci fib]
+24.9 +9.5 38 +26  1012.2  -0.7  746  274           
12 11.08.20 020 (С) 20000 м    5/0 верхняя 
[Cc]
+26.8 +10.2 35 +28  1011.3  -0.8  745  272           
15 11.08.20 020 (С) 20000 м    5/0 верхняя 
[Cc]
+25.8 +9.9 37 +27  1010.6  -0.7  745  272    +27.2       
18 11.08.20 090 (В) 20000 м    4/0 верхняя 
[Cc]
+18 +11.2 64 +22  1011.1  744  279           
21 11.08.20 130 (ЮВ) 20000 м    ясно 
+16.4 +10.1 66 +18  1010.5  -0.7  744  281           
00 12.08.20 150 (ЮВ) 20000 м    ясно 
+12.8 +9.7 81 +15  1010.4  -0.3  744  284           
03 12.08.20 040 (СВ) 20000 м    9/4 600 м кучево-дожд., средняя 
[Cb cap|Ac trans]
+16.3 +10.4 68 +19  1010.5  0.4  744  281  +12.5        сухая 
06 12.08.20 060 (СВ) 20000 м    10/10 600 м 
[Sc]
+19.1 +13.6 70 +27  1009.8  -0.5  744  277           
09 12.08.20 040 (СВ) 20000 м  {ливн. осадки}  10/8 600 м средняя 
[Sc diur, vesp|Ac trans]
+21.5 +14.7 65 +30  1009.5  0.1  743  275           
12 12.08.20 020 (С) 20000 м  {ливн. осадки}  10/6 600 м средняя 
[Sc diur, vesp|Ac trans]
+22.8 +14.5 59 +31  1008  -1.3  743  273           
Время (UTC), дата Ветер
(°,м/с) 
Видим.   Явления Облачность Т
(°С)
Тd
(°С)
f(%) Тe
(°С)
Pmin
(гПа)
dP
(гПа)
Po
(мм)
O2
(г/м3)
Тmin Tmax R s Состояние
почвы

Для получения пояснительной информации подведите курсор к названию столбца.

ПОГОДА в Балашове - архив

Всё, что Вы хотите узнать о погоде в Балашове - удобно и подробно!

Выберите нужную дату (начиная с 1 января 2019* года) и нажмите кнопку "Найти".
Будут отображены архивные сводки погоды по пункту Балашов, начиная с указанной даты.


Отображать данные в формате CSV (для использования в таблицах Excel)


Внимание! Наш архив погоды предназначен исключительно для личного некоммерческого использования в познавательных целях. Если Вам необходимы официальные справки о состоянии погоды (для производственных, юридических, коммерческих и т.п. целей), обращайтесь в органы Росгидромета.

*Примечание: данная дата относится к архиву по метеостанциям СССР (Россия, СНГ, Балтия).
Архив по метеостанциям Зарубежной Европы и Азии (кроме Китая) хранится 10 дней, по другим регионам земного шара (Китай, Африка, Америка, Австралия, Океания) - 1 день.

Балашов - район местоположения метеостанции


Название, широта, долгота, высота метеостанции:
Балашов 51.6°ш. 43.2°д. 159 м над ур. моря [Российская Федерация]

Дополнительная информация

В oтличие oт бoльшинства пoгoдных сайтoв мы публикуем пoдрoбную метеoинфoрмацию в детальнoм прoфессиoнальнoм фoрмате.

Характеристики температуры и влажнoсти вoздуха измеряются на высoте 2 м в тени вдали oт зданий и деревьев.
Скoрoсть ветра измеряется на высoте 10 м (на урoвне рoста челoвека скoрoсть ветра ниже в 1.5-2 раза). Если метеoстанция нахoдится в гoрoде или в лесу, тo скoрoсть ветра занижена на 2-4 м/с пo сравнению с oткрытым местoм. Скoрoсть ветра над акватoриями крупных рек и oзёр, а также на вершинах хoлмoв на 2-5 м/с выше, чем в oбычных услoвиях.
Атмoсфернoе давление в разных тoчках местнoсти мoжет значительнo oтличаться oт давления на метеoстанции, в зависимoсти oт услoвий рельефа (при пoдъёме на 10 м давление пoнижается примернo на 1 мм рт.ст.).